Hourly Data Report for July 24, 2021

ALGONQUIN PARK EAST GATE
ONTARIO
Current Station Operator: ECCC - MSC

45°32'00.000" N
78°16'00.000" W
397.00 m
6080192
71581
TNK

Download Data

Hourly Data (July 2021)
Hourly Data Report for July 24, 2021
TIME
LST
Temp Definition
°C
Dew Point Definition
°C
Rel Hum Definition
%
Precip. Amount Definition
mm

Wind Dir Definition
10's deg

Wind Spd Definition
km/h
Visibility Definition
km
Stn Press Definition
kPa
Hmdx Definition


Wind Chill Definition


Weather Definition


00:00 12.2 11.4 95 0.0   0   97.31     LegendNANA
01:00 11.2 10.4 95 0.0   0   97.26     LegendNANA
02:00 10.6 10.2 97 0.0   0   97.23     LegendNANA
03:00 10.4 9.9 97 0.0   0   97.22     LegendNANA
04:00 9.8 9.4 97 0.0   0   97.16     LegendNANA
05:00 9.2 8.8 97 0.0   0   97.14     LegendNANA
06:00 10.5 10.2 98 0.0   0   97.11     LegendNANA
07:00 13.8 13.1 95 0.0   0   97.09     LegendNANA
08:00 16.2 14.5 90 0.0   0   97.07     LegendNANA
09:00 19.9 13.6 67 0.0 18 5   97.03     LegendNANA
10:00 20.9 11.4 55 0.0 15 5   97.00     LegendNANA
11:00 21.9 12.4 55 0.0 18 6   96.94     LegendNANA
12:00 21.1 12.5 58 0.0 15 7   96.88     LegendNANA
13:00 21.3 13.2 60 0.0 15 9   96.78     LegendNANA
14:00 22.0 13.7 59 0.0 15 11   96.65 25   LegendNANA
15:00 20.9 13.6 63 0.0 16 7   96.56     LegendNANA
16:00 18.6 15.4 81 0.3 15 5   96.46     LegendNANA
17:00 17.6 16.4 93 1.0 12 4   96.37     LegendNANA
18:00 17.4 16.3 93 0.5 15 5   96.27     LegendNANA
19:00 17.5 16.3 93 1.3 14 9   96.13     LegendNANA
20:00 17.5 16.7 95 2.6 14 8   95.96     LegendNANA
21:00 18.1 17.4 96 6.3 20 4   95.89     LegendNANA
22:00 18.6 18.0 96 1.9 15 6   95.72     LegendNANA
23:00 19.3 18.8 97 2.0 28 6   95.63     LegendNANA

Notes on Data Quality.

Legend

  • E = Estimated
  • M = Missing
  • NA = Not Available*
  • [empty] = Indicates an unobserved value
Date modified: